Weather in Kroshnozero

Russia / Republic of Karelia     61°37′52″N   33°10′50″E
temp.,
°C
wind,
m/s
gust,
m/s
humid.,
%
clouds,
%
prec.,
mm/h
press.,
hPa
HPBL,
m
3 august, tue
tue300:00+15ene41497100 4.5 996825
03:00+15e51297100 6.9 992651
06:00+16ese31199100 1.8 988616
09:00+15wsw61297100 2.9 988775
12:00+14sw81595100 4.0 9921148
15:00+16sw7149161 5.1 9961181
18:00+15wsw6118718 1.0 998999
21:00+12wsw5128769 1.1 10001077
4 august, wed
wed400:00+11wsw51179100 0.1 10021078
03:00+11wsw51184100 0.1 1005945
06:00+12wsw5117613 0.0 1006868
09:00+15wsw612560 0.0 10081426
12:00+18w611395 0.0 10092123
15:00+19w693377 0.0 10112732
18:00+19w374184 0.0 10122256
21:00+13wsw226383 0.0 101423
5 august, thu
thu500:00+10wsw22795 0.0 101519
03:00+9s22786 0.0 101619
06:00+10sw117761 0.0 101721
09:00+16wsw125876 0.0 1018396
12:00+20wsw023798 0.0 10182242
15:00+18w114597 0.0 10181185
18:00+18se114446 0.0 1018998
21:00+14ese126553 0.0 101940
6 august, fri
fri600:00+11ene117622 0.0 101910
03:00+9ene228135 0.0 102037
06:00+11ene267671 0.0 1019152
09:00+17ene355628 0.0 1019565
12:00+20e443890 0.0 10192509
15:00+21e443620 0.0 10182381
18:00+20e45375 0.0 10182156
21:00+13ene25614 0.0 101877
7 august, sat
sat700:00+11ene25722 0.0 101990
03:00+10ene3108329 0.0 1019187
06:00+11ene3118682 0.0 1019326
09:00+17ene5105591 0.0 10181042
12:00+19e61042100 0.0 10171450
15:00+18e51044100 0.0 10161440
18:00+18e51150100 0.1 10161453
21:00+15e41170100 0.7 1015659